Printer-friendly version

IAU Minor Planet Center

Minor Planet Center

MPEC 2000-G04: 2000 FJ10

The following Minor Planet Electronic Circular may be linked-to from your own Web pages, but must not otherwise be redistributed electronically.


Read MPEC 2000-G03 Read MPEC 2000-G05


M.P.E.C. 2000-G04                                Issued 2000 Apr. 2, 16:46 UT

     The Minor Planet Electronic Circulars contain information on unusual
         minor planets and routine data on comets.  They are published
   on behalf of Commission 20 of the International Astronomical Union by the
          Minor Planet Center, Smithsonian Astrophysical Observatory,
                          Cambridge, MA 02138, U.S.A.

             Prepared using the Tamkin Foundation Computer Network

             BMARSDEN@CFA.HARVARD.EDU or GWILLIAMS@CFA.HARVARD.EDU
          URL http://cfa-www.harvard.edu/iau/mpc.html  ISSN 1523-6714

                                   2000 FJ10

Observations:
     K00F10J* C2000 03 25.37275 13 05 39.40 -07 18 33.9          21.6 V      691
     K00F10J  C2000 03 25.39390 13 05 37.09 -07 18 08.2          21.6 V      691
     K00F10J  C2000 03 25.41534 13 05 34.79 -07 17 42.8          21.3 V      691
     K00F10J HC2000 03 26.35319 13 03 59.71 -06 58 46.9          21.5 V      691
     K00F10J HC2000 03 26.35735 13 03 59.27 -06 58 40.0          21.5 V      691
     K00F10J HC2000 03 26.36135 13 03 58.85 -06 58 36.8          20.6 V      691
     K00F10J HC2000 03 27.30114 13 02 22.92 -06 39 33.8          21.7 V      691
     K00F10J HC2000 03 27.30849 13 02 22.16 -06 39 23.6          20.9 V      691
     K00F10J HC2000 03 27.31640 13 02 21.27 -06 39 14.4          21.4 V      691
     K00F10J  C2000 03 29.25185 12 59 02.60 -06 00 00.5          21.2 V      691
     K00F10J  C2000 03 29.27298 12 59 00.29 -05 59 35.1          20.7 V      691
     K00F10J  C2000 03 29.29391 12 58 58.02 -05 59 09.7          21.2 V      691
     K00F10J HC2000 04 01.22035 12 53 58.36 -05 00 11.8          20.8 V      691
     K00F10J HC2000 04 01.22835 12 53 57.49 -05 00 02.2                      691
     K00F10J HC2000 04 01.23659 12 53 56.53 -04 59 50.8          20.8 V      691
     K00F10J HC2000 04 02.17618 12 52 21.54 -04 41 10.1          20.7 V      691
     K00F10J HC2000 04 02.18002 12 52 21.10 -04 41 05.8          21.4 V      691
     K00F10J HC2000 04 02.18391 12 52 20.88 -04 41 02.5          20.8 V      691

Observer details:
691 Steward Observatory, Kitt Peak.  Observers T. Gehrels, R. S. McMillan,
    J. L. Montani, A. E. Gleason.  0.9-m Spacewatch telescope.

Orbital elements:
2000 FJ10
Epoch 2000 Mar. 17.0 TT = JDT 2451620.5                 Williams
M  97.02623              (2000.0)            P               Q
n   0.65461511     Peri.  233.25052     +0.44986205     -0.89296684
a   1.3136471      Node   190.04923     +0.84482135     +0.43104143
e   0.2261157      Incl.    5.03312     +0.28965672     +0.12966692
P   1.51           H   21.7           G   0.15
From 18 observations 2000 Mar. 25-Apr. 2.

Ephemeris:
2000 FJ10                a,e,i = 1.31, 0.23, 5                   q = 1.0166
Date    TT    R. A. (2000) Decl.     Delta      r     Elong.  Phase     V
2000 03 27    13 02.89   -06 45.5    0.448    1.441   169.6     7.2    21.3
2000 04 06    12 46.05   -03 26.9    0.468    1.468   175.2     3.3    21.2
2000 04 16    12 31.89   -00 38.1    0.507    1.492   161.1    12.6    21.8
2000 04 26    12 22.48   +01 21.5    0.563    1.515   148.4    20.4    22.4
2000 05 06    12 18.32   +02 28.9    0.633    1.536   137.3    26.5    22.8

Gareth V. Williams           (C) Copyright 2000 MPC           M.P.E.C. 2000-G04

Read MPEC 2000-G03 Read MPEC 2000-G05


Our Web policy. Index to the CBAT/MPC/ICQ pages.


Valid HTML 4.01!